[[{"header":{"parameterUnit":"m.s-1","parameterCategory":1,"la1":30.2991,"la2":30.254,"lo1":-89.0895,"lo2":-89.0444,"dy":0.0017,"dx":0.0017,"nx":28,"ny":28,"refTime":"2023-08-28T21:00:00:Z","depth":0,"parameterNumber":2,"parameterNumberName":"U-component_of_WINDS"},"data":[0,0,0,0,0,0,0,0,0,0,0,0,0,0,0,0,0,0,0,0,0,0,0,0,0,0,0,0,0,0,0,0,0,0,0,0,0,0,0,0,0,0,0,0,0,0,0,0,0,0,0,0,0,0,0,0,0,0,0.8696,0.8698,0,0.8832,0.8834,0.8835,0.8896,0.8896,0.8896,0.8895,0.9038,0.9042,0.9046,0,0,0,0,0,0,0,0,0,0,0,0,0,0.8493,0.8496,0.8696,0.8698,0.8699,0.8832,0.8834,0.8836,0.8896,0.8896,0.8896,0.8895,0.9037,0.9041,0.9046,0,0,0,0,0,0,0,0,0,0,0,0,0,0.86,0.8498,0.8696,0.8745,0.8751,0.8832,0.8834,0.8836,0.8896,0.8896,0.8896,0.8895,0.9035,0.9041,0.9047,0.9089,0,0,0.9065,0.9067,0,0,0,0,0,0,0,0,0.8594,0.8608,0.8736,0.8742,0.8749,0.8847,0.8815,0.8921,0.8896,0.8841,0.8895,0.8895,0.8975,0.8986,0.9012,0.9095,0.9102,0.9065,0.9069,0.9072,0.9073,0,0,0,0,0,0,0,0.8587,0.8602,0.875,0.8738,0.8746,0.8763,0.8777,0.8835,0.8908,0.8846,0.8851,0.8866,0.8978,0.9006,0.9016,0.9104,0.9065,0.907,0.9074,0.9076,0.9232,0.9233,0,0,0,0,0,0,0.8571,0.8596,0.8746,0.8754,0.8669,0.8766,0.8783,0.8816,0.8907,0.8921,0.8866,0.8868,0.8996,0.9009,0.9021,0.9078,0.9071,0.9077,0.908,0.9231,0.9232,0.9233,0,0,0,0,0,0,0.8566,0.8583,0.874,0.8676,0.8698,0.877,0.8806,0.8819,0.8846,0.8922,0.8936,0.8881,0.8996,0.9013,0.9072,0.9084,0.908,0.9085,0.9231,0.9232,0.9232,0.9191,0,0,0,0,0,0,0.856,0.8581,0.8597,0.8676,0.8701,0.8787,0.8807,0.8821,0.8856,0.886,0.894,0.8953,0.8997,0.9063,0.9078,0.9092,0.909,0.923,0.9231,0.9232,0.9192,0.919,0.9189,0,0,0,0,0,0.8552,0.858,0.8597,0.8615,0.8721,0.8788,0.8802,0.8852,0.8857,0.8874,0.8923,0.895,0.908,0.9068,0.9086,0.9102,0.923,0.9231,0.9232,0.9192,0.919,0.9189,0,0,0,0,0,0,0.85,0.8591,0.8611,0.8665,0.8718,0.8798,0.882,0.8848,0.8901,0.8903,0.8964,0.8981,0.9036,0.9075,0.906,0.9149,0.9157,0.9162,0.9121,0.912,0.9119,0.9108,0.9095,0,0,0,0,0,0.8495,0.854,0.8617,0.8657,0.8683,0.8747,0.8778,0.8812,0.887,0.8893,0.8946,0.9003,0.9057,0.9091,0.9144,0.9198,0.9217,0.9218,0.9217,0.9215,0.9219,0.9252,0.9254,0.9237,0.9237,0.9237,0,0,0.8484,0.8539,0.8564,0.8648,0.8693,0.874,0.8765,0.8814,0.885,0.8901,0.896,0.9001,0.9069,0.9126,0.9154,0.916,0.9228,0.9217,0.9215,0.922,0.9254,0.9255,0.9257,0.9238,0.9238,0.9238,0,0,0.8489,0.8534,0.8573,0.8619,0.8687,0.873,0.8739,0.8816,0.8845,0.8906,0.8945,0.899,0.9081,0.9128,0.9163,0.9189,0.9217,0.9205,0.9198,0.923,0.9232,0.9233,0.9244,0.9247,0.9208,0.9208,0.9208,0,0.8467,0.8538,0.859,0.8637,0.8673,0.8722,0.8763,0.8805,0.8887,0.8912,0.8918,0.9035,0.9083,0.9153,0.9159,0.9186,0.9201,0.9196,0.9227,0.9229,0.9232,0.9242,0.9246,0.9206,0.9206,0.9207,0.9207,0,0.8509,0.8558,0.8581,0.866,0.8699,0.8743,0.8803,0.8838,0.8869,0.8912,0.8974,0.9035,0.9102,0.9122,0.9152,0.9197,0.9199,0.9215,0.9225,0.923,0.9242,0.9246,0.9204,0.9204,0.9205,0.9205,0,0,0.8482,0.859,0.8598,0.8635,0.8715,0.8755,0.8802,0.8868,0.8897,0.8953,0.8995,0.9072,0.9089,0.9129,0.9166,0.9194,0.9213,0.9208,0.9211,0.9208,0.9268,0.9255,0.9259,0.9232,0.9233,0.9234,0.9263,0,0.8498,0.8583,0.8633,0.8698,0.8745,0.8793,0.8835,0.8889,0.8932,0.8979,0.9027,0.9081,0.9097,0.9123,0.9153,0.9204,0.9226,0.9203,0.9274,0.9276,0.9255,0.9265,0.9251,0.9275,0.9267,0.9268,0.9269,0,0.8528,0.8583,0.8652,0.8729,0.8751,0.8787,0.8853,0.8897,0.8961,0.8991,0.9037,0.9074,0.9129,0.9134,0.9211,0.9194,0.9227,0.9257,0.9259,0.9267,0.9272,0.9274,0.9284,0.9287,0.9276,0.9275,0.9275,0,0.8503,0.8594,0.8648,0.8679,0.8769,0.8794,0.8833,0.8897,0.8934,0.8993,0.9018,0.9081,0.9116,0.9166,0.9221,0.922,0.9292,0.9302,0.932,0.9318,0.9332,0.933,0.9347,0.9352,0.9352,0.9352,0.9352,0,0.8515,0.8556,0.8638,0.8671,0.872,0.8778,0.8825,0.8869,0.8926,0.897,0.9016,0.9057,0.9126,0.9176,0.922,0.9278,0.9293,0.9319,0.9331,0.9315,0.9312,0.9337,0.9337,0.9353,0.9353,0.9353,0.9353,0,0.8495,0.8551,0.8613,0.8695,0.8717,0.8749,0.882,0.8855,0.89,0.8956,0.8972,0.9044,0.9106,0.9166,0.9249,0.9278,0.9336,0.9351,0.9314,0.932,0.9334,0.9332,0.9368,0.9376,0.9375,0.9374,0.9374,0,0.8499,0.8531,0.8617,0.8649,0.8687,0.8739,0.8777,0.8837,0.8875,0.8953,0.8979,0.9044,0.9099,0.9196,0.9257,0.9322,0.9338,0.9347,0.9348,0.9333,0.934,0.9337,0.9342,0.9345,0.9345,0.9344,0.9344,0,0.85,0.8527,0.858,0.8643,0.8688,0.8741,0.8795,0.882,0.8891,0.8932,0.8995,0.9038,0.9123,0.9188,0.926,0.9303,0.9336,0.9343,0.9351,0.9336,0.9313,0.9327,0.931,0.9342,0.9342,0.9342,0.9343,0.9343,0.8493,0.8525,0.8591,0.8649,0.8696,0.8747,0.8785,0.8835,0.8889,0.8962,0.8995,0.9059,0.9126,0.9226,0.9269,0.9322,0.933,0.934,0.9343,0.9345,0.9342,0.9305,0.9335,0.9335,0.9335,0.9335,0.9336,0,0.8498,0.8543,0.8596,0.8671,0.8717,0.8744,0.8807,0.8844,0.89,0.8959,0.9013,0.9087,0.9151,0.9217,0.9286,0.9315,0.9332,0.9331,0.933,0.934,0.933,0.9317,0.9316,0.9316,0.9316,0.9316,0.9316,0.9316,0.8506,0.8562,0.8597,0.8679,0.8724,0.8787,0.8821,0.8869,0.8916,0.8997,0.905,0.9093,0.9156,0.9229,0.929,0.9308,0.9332,0.9326,0.9349,0.9339,0.934,0.9341,0.9329,0.9331,0.9331,0.9354,0.9354,0.9354]},{"header":{"parameterUnit":"m.s-1","parameterCategory":1,"la1":30.2991,"la2":30.254,"lo1":-89.0895,"lo2":-89.0444,"dy":0.0017,"dx":0.0017,"nx":28,"ny":28,"refTime":"2023-08-28T21:00:00:Z","depth":0,"parameterNumber":3,"parameterNumberName":"V-component_of_WINDS"},"data":[0,0,0,0,0,0,0,0,0,0,0,0,0,0,0,0,0,0,0,0,0,0,0,0,0,0,0,0,0,0,0,0,0,0,0,0,0,0,0,0,0,0,0,0,0,0,0,0,0,0,0,0,0,0,0,0,0,0,-4.3424,-4.3425,0,-4.3499,-4.35,-4.3501,-4.3526,-4.3525,-4.3525,-4.3525,-4.3601,-4.3603,-4.3606,0,0,0,0,0,0,0,0,0,0,0,0,0,-4.3304,-4.3306,-4.3424,-4.3425,-4.3426,-4.3499,-4.35,-4.3501,-4.3526,-4.3525,-4.3525,-4.3525,-4.36,-4.3603,-4.3606,0,0,0,0,0,0,0,0,0,0,0,0,0,-4.3365,-4.3307,-4.3424,-4.3447,-4.345,-4.3499,-4.35,-4.3501,-4.3526,-4.3525,-4.3525,-4.3524,-4.3599,-4.3603,-4.3606,-4.3637,0,0,-4.3617,-4.3618,0,0,0,0,0,0,0,0,-4.3362,-4.337,-4.3443,-4.3446,-4.3449,-4.3503,-4.3486,-4.3547,-4.3526,-4.3497,-4.3525,-4.3524,-4.3569,-4.3575,-4.359,-4.364,-4.3644,-4.3617,-4.3619,-4.3621,-4.3622,0,0,0,0,0,0,0,-4.3358,-4.3367,-4.3454,-4.3444,-4.3448,-4.3454,-4.3463,-4.3497,-4.3534,-4.3499,-4.3501,-4.351,-4.357,-4.3586,-4.3592,-4.3645,-4.3617,-4.362,-4.3622,-4.3624,-4.3728,-4.3729,0,0,0,0,0,0,-4.3349,-4.3363,-4.3451,-4.3456,-4.3403,-4.3457,-4.3466,-4.3486,-4.3534,-4.3541,-4.351,-4.3511,-4.358,-4.3587,-4.3594,-4.3635,-4.3621,-4.3624,-4.3626,-4.3727,-4.3728,-4.3729,0,0,0,0,0,0,-4.3347,-4.3357,-4.3448,-4.341,-4.3422,-4.3459,-4.3481,-4.3487,-4.3504,-4.3542,-4.3549,-4.352,-4.358,-4.3589,-4.3627,-4.3638,-4.3625,-4.3629,-4.3726,-4.3728,-4.3728,-4.3717,0,0,0,0,0,0,-4.3343,-4.3356,-4.3367,-4.341,-4.3424,-4.3479,-4.3482,-4.3489,-4.3509,-4.3511,-4.3553,-4.356,-4.3581,-4.3622,-4.363,-4.3643,-4.3631,-4.3726,-4.3727,-4.3728,-4.3716,-4.3717,-4.3718,0,0,0,0,0,-4.3339,-4.336,-4.3368,-4.3378,-4.3439,-4.3479,-4.3487,-4.3511,-4.351,-4.3523,-4.3548,-4.3558,-4.3636,-4.3625,-4.3635,-4.3649,-4.3725,-4.3727,-4.3728,-4.3716,-4.3717,-4.3718,0,0,0,0,0,0,-4.3317,-4.3366,-4.3375,-4.3411,-4.3441,-4.3484,-4.35,-4.3512,-4.3542,-4.3542,-4.3571,-4.358,-4.3616,-4.3636,-4.3624,-4.3683,-4.3681,-4.3685,-4.3668,-4.367,-4.3671,-4.3665,-4.3634,0,0,0,0,0,-4.3316,-4.3345,-4.3386,-4.3414,-4.3429,-4.3462,-4.348,-4.3496,-4.3528,-4.3541,-4.3569,-4.36,-4.3632,-4.3652,-4.3683,-4.3719,-4.373,-4.3734,-4.3735,-4.3736,-4.3738,-4.3762,-4.3765,-4.3734,-4.3734,-4.3734,0,0,-4.3315,-4.3346,-4.3362,-4.341,-4.3436,-4.3465,-4.3472,-4.3502,-4.3525,-4.3546,-4.3583,-4.3605,-4.3642,-4.3679,-4.3697,-4.3697,-4.375,-4.3738,-4.3738,-4.374,-4.3764,-4.3767,-4.3769,-4.3735,-4.3735,-4.3735,0,0,-4.3328,-4.3354,-4.3381,-4.3406,-4.3445,-4.3467,-4.3474,-4.3516,-4.3531,-4.3569,-4.3586,-4.3614,-4.3667,-4.3693,-4.3714,-4.374,-4.3751,-4.3749,-4.3754,-4.3777,-4.3779,-4.3781,-4.3792,-4.3796,-4.3752,-4.3752,-4.3752,0,-4.3322,-4.3367,-4.3393,-4.3423,-4.3445,-4.3467,-4.3495,-4.3519,-4.3565,-4.358,-4.358,-4.3649,-4.3675,-4.372,-4.3727,-4.3742,-4.3752,-4.3745,-4.3776,-4.3779,-4.3782,-4.3793,-4.3796,-4.3752,-4.3752,-4.3752,-4.3752,0,-4.3358,-4.3389,-4.3407,-4.3452,-4.3476,-4.3505,-4.3537,-4.3558,-4.3573,-4.3595,-4.3635,-4.3668,-4.3707,-4.3719,-4.3733,-4.3767,-4.3766,-4.3771,-4.377,-4.3784,-4.3795,-4.3799,-4.3751,-4.3751,-4.3751,-4.3752,0,0,-4.3358,-4.342,-4.3425,-4.3448,-4.3493,-4.3518,-4.3549,-4.3588,-4.3607,-4.3639,-4.3666,-4.3712,-4.3718,-4.3741,-4.3759,-4.3778,-4.38,-4.3781,-4.3782,-4.3784,-4.3842,-4.3838,-4.3843,-4.3808,-4.3808,-4.3809,-4.3839,0,-4.3377,-4.3434,-4.346,-4.3505,-4.3535,-4.3557,-4.3585,-4.3616,-4.3639,-4.3669,-4.3694,-4.3727,-4.373,-4.3745,-4.3765,-4.3792,-4.3812,-4.3791,-4.3834,-4.3836,-4.3825,-4.3848,-4.3844,-4.387,-4.3843,-4.3844,-4.3844,0,-4.3407,-4.3441,-4.349,-4.3534,-4.3548,-4.3572,-4.3611,-4.3639,-4.3676,-4.3691,-4.3719,-4.3736,-4.3771,-4.3768,-4.3817,-4.3803,-4.3822,-4.3839,-4.3841,-4.3846,-4.3841,-4.3855,-4.3879,-4.3884,-4.3851,-4.385,-4.385,0,-4.3404,-4.3461,-4.3498,-4.3516,-4.3569,-4.3586,-4.3608,-4.3645,-4.3668,-4.3702,-4.3718,-4.3756,-4.3777,-4.3806,-4.3834,-4.3829,-4.3882,-4.388,-4.3897,-4.3896,-4.3906,-4.3905,-4.3935,-4.3918,-4.3918,-4.3918,-4.3918,0,-4.3424,-4.3453,-4.3498,-4.3521,-4.3555,-4.3585,-4.3618,-4.3642,-4.3675,-4.3704,-4.3726,-4.3752,-4.3787,-4.3819,-4.3841,-4.388,-4.3889,-4.3903,-4.3909,-4.3902,-4.39,-4.3915,-4.3914,-4.3919,-4.3919,-4.3919,-4.3918,0,-4.3425,-4.3456,-4.3498,-4.3546,-4.3558,-4.3581,-4.3622,-4.3646,-4.3671,-4.3707,-4.3717,-4.3756,-4.3795,-4.3826,-4.3876,-4.3891,-4.3932,-4.3938,-4.392,-4.3923,-4.3938,-4.3937,-4.3979,-4.3987,-4.3963,-4.3964,-4.3964,0,-4.3435,-4.3459,-4.3509,-4.353,-4.3553,-4.3587,-4.3611,-4.3642,-4.3666,-4.3712,-4.3731,-4.3771,-4.3805,-4.3866,-4.3899,-4.3938,-4.3946,-4.3958,-4.3952,-4.3945,-4.3948,-4.3946,-4.395,-4.3959,-4.3959,-4.3959,-4.3959,0,-4.3451,-4.3466,-4.35,-4.354,-4.3569,-4.3602,-4.3635,-4.3651,-4.3689,-4.3716,-4.3756,-4.3783,-4.3835,-4.3875,-4.3919,-4.3943,-4.3958,-4.3961,-4.3967,-4.396,-4.3949,-4.3957,-4.3923,-4.396,-4.396,-4.396,-4.396,-4.396,-4.3458,-4.3481,-4.3521,-4.3559,-4.3588,-4.3619,-4.3645,-4.3674,-4.3708,-4.3753,-4.377,-4.3812,-4.3851,-4.3911,-4.3936,-4.397,-4.3971,-4.3979,-4.3982,-4.3983,-4.3983,-4.3944,-4.3978,-4.3978,-4.3978,-4.3978,-4.3978,0,-4.3476,-4.3504,-4.3538,-4.3585,-4.3616,-4.3628,-4.3667,-4.3691,-4.3728,-4.3764,-4.3797,-4.3845,-4.3885,-4.3923,-4.3965,-4.3985,-4.3993,-4.3995,-4.3994,-4.4,-4.3979,-4.397,-4.3988,-4.3988,-4.3988,-4.3988,-4.3988,-4.3988,-4.3489,-4.3529,-4.3549,-4.3604,-4.3632,-4.3674,-4.3695,-4.3725,-4.3754,-4.3806,-4.384,-4.3864,-4.3902,-4.3947,-4.3985,-4.3995,-4.401,-4.4011,-4.4023,-4.4002,-4.4001,-4.4,-4.3992,-4.4014,-4.4014,-4.4041,-4.4041,-4.4042]}]]